User: anonymous   Login
Location: Unspecified
(0.0000°N, 0.0000°E)
Time: 11:58:58
(UTC+00:00)
Language:

QB50P2 - Orbit

View from above orbital plane
View from above orbital plane
View from above satellite
View from above satellite

Ground track
Ground track

The orbit data is extracted from the following two-line orbital elements,

1 40032U 14033Y   18175.76773324 +.00000272 +00000-0 +35477-4 0  9992
2 40032 097.9008 089.8399 0012474 149.4952 210.6992 14.88270901217337
Epoch (UTC): 24 June 2018 18:25:32
Eccentricity: 0.0012474
inclination: 97.9008°
perigee height: 594 km
apogee height: 612 km
right ascension of ascending node: 89.8399°
argument of perigee: 149.4952°
revolutions per day: 14.88270901
mean anomaly at epoch: 210.6992°
orbit number at epoch: 21733

The dashed part of the orbit path shows where the satellite is in the earth's shadow,  

DLR